Weather in Tulsa

United States     36°07′17″N   95°56′24″W
temp.,
°C
wind,
m/s
gust,
m/s
humid.,
%
clouds,
%
prec.,
mm/h
press.,
hPa
HPBL,
m
6 may, thu
thu601:00+15sw2356100 0.0 102145
04:00+13wnw33721 0.0 102245
07:00+12wnw36860 0.0 1023111
10:00+18nw47690 0.0 1024697
13:00+20nne67580 0.0 10241153
16:00+21n67480 0.0 10231537
19:00+18nne46610 0.0 1022405
22:00+13ne36740 0.0 1025108
7 may, fri
fri701:00+10ese37770 0.0 1024123
04:00+11se257186 0.0 1023154
07:00+11sse2468100 0.0 1023132
10:00+14sse466597 0.0 1023316
13:00+18s685885 0.0 1020784
16:00+20s7106244 0.0 10171132
19:00+20sse6117730 0.0 1014560
22:00+18sse71582100 0.1 1013514
8 may, sat
sat801:00+17s71784100 0.1 1012651
04:00+19s81778100 0.0 1011793
07:00+17s7168498 0.0 1010576
10:00+20s8147663 0.0 1010742
13:00+24ssw9126628 0.0 10081170
16:00+24s101376100 0.1 10061292
19:00+22s101780100 0.1 1004929
22:00+23s10207696 0.0 10031036
9 may, sun
sun901:00+22ssw112183100 0.2 10021071
04:00+22ssw112283100 0.0 10011042
07:00+22ssw101984100 0.0 10021046
10:00+22wsw71284100 0.1 1004984
13:00+25wnw566111 0.3 10051136
16:00+25nw445411 0.0 10051475
19:00+22n68650 0.0 1007559
22:00+18nne712670 0.0 1011702
10 may, mon
mon1001:00+12nne814700 0.0 1013589
04:00+9nne512815 0.0 1015528
07:00+8ne612858 0.0 1016562
10:00+11ne786926 0.0 1018833
13:00+15nne776056 0.0 10171117
16:00+14nne6868100 0.0 10171002
19:00+12nne8117497 0.0 1018720
22:00+12nne71268100 0.0 1021719